Date,TemperatureHighF,TemperatureAvgF,TemperatureLowF,DewpointHighF,DewpointAvgF,DewpointLowF,HumidityHigh,HumidityAvg,HumidityLow,PressureMaxIn,PressureMinIn,WindSpeedMaxMPH,WindSpeedAvgMPH,GustSpeedMaxMPH,PrecipitationSumIn
2013-4-1,81.8,70.1,55.5,28.0,19.8,7.3,30,16,6,30.08,29.89,18,4,18,0.00
2013-4-2,79.8,65.8,57.4,27.5,19.0,4.2,28,18,7,29.97,29.80,21,4,21,0.00
2013-4-3,63.7,57.7,45.3,35.6,30.5,2.2,65,38,10,30.11,29.93,10,4,10,0.00
2013-4-4,79.3,71.5,63.2,33.6,20.6,8.7,32,16,8,30.21,30.07,16,4,12,0.00
2013-4-5,84.3,72.7,63.3,26.7,16.8,6.9,22,13,6,30.11,29.89,27,9,27,0.00
2013-4-6,68.3,67.5,66.5,22.1,20.9,20.0,18,17,16,29.98,29.97,6,3,6,0.00
2013-4-8,83.5,75.3,66.3,26.3,21.2,13.4,19,14,8,29.77,29.54,26,11,26,0.00
2013-4-9,68.4,56.1,47.9,35.5,25.9,16.4,59,33,17,29.90,29.53,26,10,26,0.00
2013-4-10,63.7,53.4,41.7,30.9,24.6,17.2,61,35,17,29.97,29.85,22,6,22,0.00
2013-4-11,73.2,56.6,39.5,22.7,18.2,9.0,48,25,10,29.98,29.80,15,4,15,0.00
2013-4-12,78.7,65.5,53.1,25.9,17.7,10.2,25,17,10,29.91,29.79,14,3,14,0.00
2013-4-13,75.0,67.1,61.9,28.4,22.9,18.9,23,19,15,29.87,29.83,12,4,12,0.00
2013-4-14,80.2,74.9,63.9,27.7,22.4,11.6,19,14,10,29.81,29.71,21,9,21,0.00
2013-4-15,83.2,70.5,55.9,30.0,21.6,11.7,36,17,8,29.90,29.77,25,7,25,0.00
2013-4-16,84.4,71.2,60.6,29.8,19.3,8.2,26,15,6,29.93,29.78,24,6,24,0.00
2013-4-17,78.3,66.1,52.6,29.9,20.5,7.7,31,18,8,29.95,29.71,31,10,31,0.00
2013-4-18,64.3,52.8,42.7,21.9,12.9,-9.3,40,23,5,30.16,29.95,20,7,20,0.00
2013-4-19,67.7,54.7,45.0,4.7,-1.3,-13.1,17,10,4,30.28,30.04,21,6,21,0.00
2013-4-20,78.7,64.8,48.1,12.6,2.8,-11.5,17,9,3,30.04,29.86,22,6,22,0.00
2013-4-21,81.5,68.0,51.3,18.1,13.0,4.7,23,13,7,30.15,29.98,16,3,16,0.00
2013-4-22,86.3,71.3,56.1,21.0,11.5,4.2,22,11,5,30.07,29.85,22,3,22,0.00
2013-4-23,85.0,70.7,57.5,25.9,13.3,3.4,29,12,5,30.02,29.83,31,6,31,0.00
2013-4-24,73.5,58.8,45.1,32.5,26.9,23.4,47,32,16,30.17,30.01,36,16,36,0.00
2013-4-25,83.0,68.4,57.2,41.5,31.0,8.9,41,28,7,30.11,29.91,32,14,32,0.00
2013-4-26,81.5,69.7,57.9,22.8,14.3,1.9,24,13,5,30.18,30.02,14,4,14,0.00
2013-4-27,84.0,72.2,62.2,28.1,16.4,4.2,24,13,5,30.18,30.01,24,7,24,0.00
2013-4-28,85.5,74.5,62.4,39.1,27.3,15.5,35,19,8,30.06,29.88,23,5,23,0.00
2013-4-29,88.7,75.5,61.9,34.6,18.4,-3.4,31,14,3,29.95,29.78,16,3,16,0.00
2013-4-30,90.1,77.0,62.1,19.9,12.5,3.8,16,9,4,29.89,29.78,21,4,21,0.00